Wind_Speed
24 23 23 23 22 22 22 20 18 16 15 16 16 17 18 17 15 12 11 10 9 9 10 10 10 9 9 9 9 8 8 8 7 8 10 10 10 9 9 8 7 7 8
27 27 27 27 27 25 24 24 22 19 18 18 18 18 20 20 19 16 15 15 13 11 12 13 13 12 11 11 11 11 10 9 9 11 11 12 11 10 9 8 8 9 8
25 28 31 32 31 29 27 26 25 24 22 22 22 21 20 22 23 21 18 18 17 16 16 15 15 15 14 13 13 13 12 11 12 13 13 13 12 11 11 10 10 11 9
29 28 29 34 35 33 31 31 30 27 26 26 25 23 25 24 24 24 22 20 20 20 19 19 18 17 16 16 15 14 14 12 14 15 13 13 13 13 12 11 12 11 11
32 31 32 30 33 37 36 35 34 32 30 28 26 25 25 26 26 26 25 23 22 23 23 22 21 20 18 17 16 16 14 15 15 14 15 14 14 14 14 13 13 12 12
37 35 34 31 31 33 36 38 37 35 34 31 27 28 27 27 27 28 28 27 26 25 25 24 23 22 20 19 18 17 17 16 16 17 17 16 15 15 15 15 14 14 12
37 39 39 36 32 32 34 36 38 40 36 35 30 31 31 29 31 32 31 31 31 29 29 28 26 24 23 21 20 20 19 19 18 18 18 18 17 16 17 16 15 15 13
35 38 41 41 37 33 31 35 37 38 39 37 36 35 27 33 37 36 35 36 36 33 33 31 30 28 27 25 23 22 20 20 20 19 20 20 19 18 16 15 15 15 14
32 34 37 41 42 38 35 32 36 37 38 38 37 35 14 16 29 31 38 40 40 37 36 35 33 31 30 29 27 25 24 22 21 21 22 22 21 19 17 18 18 17 15
33 32 33 36 41 43 40 35 35 32 37 39 40 41 42 24 19 18 24 28 31 36 37 37 35 34 32 31 30 30 27 25 23 24 24 23 23 22 19 20 19 19 19
33 31 30 33 35 39 43 42 36 35 35 34 38 38 40 43 40 32 26 20 25 30 27 27 29 31 33 34 33 32 30 27 24 23 23 24 24 22 23 21 21 22 21
33 31 29 30 32 34 37 42 42 38 34 36 34 39 44 37 38 41 40 40 41 40 35 31 28 27 27 29 31 30 28 25 24 22 21 22 21 22 24 24 25 24 25
31 29 28 29 32 32 31 33 37 42 39 35 35 39 37 37 37 36 40 42 43 42 39 37 33 32 30 28 27 30 27 25 23 22 21 21 22 24 24 25 27 27 27
27 27 27 28 27 31 28 27 28 29 34 38 39 36 35 36 34 35 39 35 32 34 40 41 34 30 32 34 30 31 29 35 33 32 28 27 27 26 25 27 27 28 29
26 27 25 23 22 23 29 27 26 28 29 29 29 30 33 35 37 35 36 38 39 28 31 40 36 38 37 34 35 30 34 35 39 38 41 33 29 36 32 32 30 26 28
17 17 19 19 18 20 20 23 24 29 25 26 26 28 31 31 32 33 35 37 37 40 36 34 42 40 36 36 32 35 38 31 28 15 17 26 30 31 31 31 32 31 31
12 13 14 16 17 17 14 18 17 17 20 21 21 22 25 27 31 30 31 34 35 36 39 41 43 42 40 37 36 38 35 29 28 23 26 28 32 33 36 35 35 34 34
7 8 10 13 18 18 18 18 20 21 24 26 26 25 25 24 23 24 28 32 34 34 37 42 36 38 38 36 38 37 38 33 33 29 35 34 34 35 37 36 35 37 37
6 5 7 10 14 18 19 20 22 24 26 27 27 27 29 28 29 28 28 27 32 35 37 37 38 34 36 37 38 37 34 28 28 32 30 34 36 38 40 38 37 37 37
7 6 6 7 9 13 17 20 23 24 26 27 27 27 27 27 29 30 30 29 28 34 34 35 34 35 33 31 33 30 28 24 28 28 31 32 28 27 26 24 21 23 26
8 8 8 9 10 12 14 16 18 20 23 25 24 24 27 27 26 27 29 31 29 31 32 35 31 30 27 22 20 18 22 25 29 32 31 28 24 20 18 20 21 22 22
8 9 10 12 13 13 14 14 16 18 19 21 24 25 26 26 26 26 28 28 27 29 28 37 37 28 22 19 25 20 28 31 28 30 30 27 22 20 20 23 23 24 26
9 10 10 11 12 13 15 16 19 21 22 23 22 23 24 24 24 22 21 23 24 24 24 20 21 22 24 26 27 28 33 30 30 26 25 27 25 26 25 24 23 20 20
9 11 12 13 14 15 17 19 18 19 22 22 22 22 20 20 20 19 17 16 16 18 18 18 19 21 21 22 25 27 24 23 18 18 18 21 23 23 23 24 25 25 25
11 10 9 10 13 14 10 8 8 11 11 14 16 19 18 17 18 16 16 17 15 13 17 18 19 19 17 17 17 14 13 13 14 15 17 21 22 25 26 24 22 21 21
11 11 10 9 9 8 10 8 7 9 9 7 7 8 11 12 14 17 16 15 15 12 10 9 8 8 9 11 12 13 14 15 16 14 16 15 15 19 13 20 15 13 17
Wind_Direction
253 254 252 249 250 247 246 248 245 245 240 235 231 230 230 234 239 242 247 248 253 262 266 268 270 274 276 279 280 281 285 293 301 315 318 322 327 327 328 341 349 348 340
257 254 254 252 251 249 248 248 248 248 249 243 239 235 234 235 238 244 246 251 253 260 267 265 267 270 274 276 277 277 279 280 289 304 309 310 311 311 316 321 316 330 323
260 262 255 256 251 251 249 246 246 247 244 246 242 239 236 236 239 244 248 252 256 257 264 266 269 267 269 273 274 276 275 282 292 295 294 298 300 301 294 290 299 308 306
253 259 265 259 258 254 252 249 249 246 247 247 247 242 241 238 240 242 247 251 257 260 262 265 268 270 270 270 272 272 271 274 277 278 288 292 291 292 294 284 290 299 296
252 251 255 266 264 260 256 255 254 253 250 249 249 249 245 242 242 244 248 250 256 262 262 264 266 267 266 267 271 273 269 266 273 275 281 284 288 288 287 286 287 293 291
249 250 251 254 263 268 266 258 258 258 257 256 249 253 253 248 248 247 250 254 256 261 263 262 262 262 263 263 266 270 272 273 273 276 279 280 283 285 283 281 281 286 283
252 249 250 249 252 259 264 264 265 262 259 258 251 248 251 252 252 250 252 253 254 257 260 260 261 261 261 261 264 267 270 271 272 273 277 280 281 283 282 277 278 280 279
260 253 250 250 249 251 258 264 265 267 265 259 251 247 252 251 255 251 251 251 253 255 258 259 261 263 263 261 262 266 266 269 270 272 274 276 280 279 282 281 283 274 274
262 258 252 249 249 250 252 253 259 261 264 266 258 245 237 233 258 261 255 254 254 254 258 259 260 262 264 265 265 264 263 266 269 271 273 275 277 275 279 278 282 281 277
264 259 253 249 247 248 248 250 249 260 256 258 264 257 242 245 245 271 260 260 259 258 258 260 263 264 264 265 267 267 266 265 268 272 272 271 273 273 270 271 272 276 280
264 263 257 249 247 246 247 247 250 252 249 266 259 258 252 248 252 243 261 270 264 265 264 265 266 266 266 265 266 268 268 265 265 269 271 268 268 268 265 269 269 269 272
266 263 261 254 247 245 246 248 248 250 254 255 260 259 258 252 256 257 247 256 265 269 269 267 266 269 272 268 266 265 266 262 261 265 270 274 274 275 275 266 264 266 266
267 264 263 257 249 243 247 248 250 250 252 256 258 258 265 260 261 265 258 256 252 264 268 268 268 269 268 267 269 266 261 256 259 262 266 269 270 273 274 276 269 269 269
271 270 268 264 256 245 244 248 249 254 254 255 257 263 267 268 267 264 262 253 254 260 272 275 271 262 266 269 258 259 250 252 261 255 257 261 267 267 275 280 278 274 273
275 272 266 259 253 247 243 248 253 255 257 259 258 260 262 265 268 263 260 261 259 262 270 273 269 274 273 280 260 269 259 249 269 271 263 252 268 277 282 276 278 276 276
274 270 266 253 245 243 246 245 256 256 260 262 263 263 264 265 267 266 265 263 264 264 262 263 268 275 281 279 273 266 264 261 255 253 254 255 255 264 272 274 277 275 271
278 271 261 248 239 239 246 246 256 255 255 260 261 265 267 268 265 268 268 263 262 260 257 268 266 271 270 269 268 270 257 256 245 244 255 257 265 268 270 272 274 268 268
310 287 260 252 235 232 237 245 251 256 260 261 264 268 271 273 274 273 270 263 256 262 261 263 267 269 270 270 272 262 268 262 247 250 263 268 269 273 273 276 275 266 267
317 298 273 262 250 246 251 255 261 264 267 269 269 269 269 268 268 270 272 278 262 257 261 254 269 267 277 276 269 269 264 252 260 257 266 270 269 268 268 266 267 277 272
304 288 273 263 256 253 255 258 261 264 266 268 269 270 269 268 269 267 269 270 272 264 256 260 262 268 270 262 268 254 266 256 264 278 274 277 273 266 265 265 267 261 263
301 293 281 271 267 264 263 268 268 271 272 269 268 270 271 269 265 265 263 266 268 266 267 246 257 266 257 246 261 265 272 272 273 276 273 264 264 268 266 266 267 264 263
305 295 284 278 277 277 281 284 286 285 282 276 266 264 272 273 272 271 262 257 257 262 275 258 256 257 256 262 260 270 270 263 261 263 259 263 265 263 266 266 266 262 269
306 303 295 287 283 278 278 282 286 284 285 279 275 268 266 266 268 269 263 262 258 255 256 269 272 265 257 265 270 273 258 249 249 245 250 263 263 265 271 277 277 274 271
321 303 295 291 289 287 287 287 290 291 280 272 266 271 273 268 266 265 264 256 255 258 261 266 265 259 262 258 252 241 233 236 241 252 262 268 266 272 274 272 273 273 272
353 344 330 316 311 311 302 298 306 315 305 272 266 269 271 275 270 263 264 271 259 258 271 272 274 263 239 232 235 239 249 262 269 266 267 277 280 280 279 281 278 272 270
8 12 360 349 341 325 317 316 312 296 278 250 250 247 250 249 255 253 250 248 243 246 252 252 250 246 251 260 267 271 269 267 270 280 275 280 280 296 304 294 277 264 274
Height
1543 1544 1544 1545 1545 1546 1546 1547 1548 1549 1549 1550 1550 1550 1550 1551 1552 1552 1553 1553 1554 1554 1555 1555 1555 1555 1554 1554 1553 1553 1552 1551 1551 1550 1549 1548 1547 1546 1545 1544 1543 1541 1540
1539 1540 1540 1541 1541 1542 1543 1544 1545 1546 1546 1547 1547 1547 1548 1548 1549 1549 1550 1551 1551 1552 1552 1553 1553 1553 1553 1552 1552 1551 1551 1550 1549 1548 1547 1546 1546 1544 1543 1542 1541 1540 1539
1534 1535 1535 1536 1537 1538 1539 1539 1540 1541 1542 1543 1543 1544 1545 1545 1546 1546 1547 1548 1548 1549 1549 1550 1550 1550 1550 1550 1550 1549 1549 1548 1548 1547 1546 1545 1544 1542 1541 1540 1539 1538 1538
1529 1530 1530 1530 1532 1533 1534 1534 1535 1536 1537 1538 1539 1540 1541 1542 1542 1542 1543 1544 1544 1545 1546 1546 1547 1547 1547 1547 1547 1546 1547 1547 1546 1545 1544 1543 1542 1540 1539 1538 1538 1537 1536
1522 1523 1524 1525 1526 1527 1528 1530 1530 1531 1532 1532 1534 1535 1536 1537 1538 1538 1538 1539 1540 1540 1541 1542 1543 1543 1543 1543 1543 1543 1543 1543 1543 1542 1541 1540 1539 1538 1537 1535 1535 1534 1534
1514 1515 1517 1519 1521 1521 1522 1523 1524 1525 1526 1528 1530 1530 1531 1532 1533 1533 1533 1534 1535 1535 1536 1537 1538 1538 1539 1540 1540 1539 1539 1539 1539 1539 1538 1537 1536 1535 1534 1533 1532 1531 1530
1506 1507 1509 1511 1514 1515 1516 1517 1518 1518 1521 1523 1525 1525 1525 1527 1526 1527 1528 1528 1528 1529 1530 1531 1532 1533 1534 1535 1535 1535 1535 1535 1534 1534 1534 1533 1533 1532 1531 1530 1529 1528 1528
1498 1499 1501 1503 1506 1508 1509 1510 1512 1513 1514 1516 1518 1520 1518 1519 1518 1519 1521 1521 1521 1522 1523 1525 1526 1527 1528 1529 1529 1530 1531 1531 1530 1530 1529 1529 1528 1528 1528 1527 1527 1526 1525
1489 1490 1492 1494 1497 1500 1502 1504 1505 1507 1508 1509 1511 1513 1513 1510 1512 1511 1512 1514 1514 1515 1516 1517 1519 1520 1522 1523 1525 1525 1525 1526 1526 1525 1525 1524 1524 1525 1525 1525 1524 1524 1523
1479 1480 1482 1485 1487 1490 1493 1496 1500 1500 1501 1502 1503 1504 1506 1507 1506 1507 1506 1508 1509 1509 1510 1511 1512 1513 1514 1516 1518 1519 1520 1521 1521 1521 1520 1519 1519 1520 1520 1520 1520 1520 1519
1470 1472 1473 1476 1478 1481 1484 1488 1491 1493 1495 1494 1496 1498 1497 1500 1502 1498 1501 1504 1505 1506 1505 1505 1505 1506 1507 1509 1510 1512 1513 1514 1515 1515 1515 1514 1514 1515 1515 1515 1515 1514 1514
1462 1464 1466 1467 1470 1472 1475 1478 1482 1485 1487 1489 1490 1491 1492 1492 1493 1496 1492 1494 1494 1501 1500 1500 1499 1500 1500 1501 1503 1504 1507 1508 1509 1508 1508 1509 1508 1508 1508 1509 1509 1509 1509
1453 1456 1458 1460 1461 1464 1468 1470 1474 1476 1479 1481 1483 1484 1484 1484 1487 1488 1489 1488 1490 1491 1492 1493 1492 1493 1495 1496 1496 1498 1499 1501 1502 1502 1501 1503 1503 1502 1502 1503 1503 1504 1504
1446 1449 1451 1453 1454 1457 1461 1463 1466 1468 1471 1473 1474 1476 1478 1478 1480 1481 1483 1485 1482 1483 1483 1483 1483 1486 1488 1489 1488 1489 1491 1493 1494 1495 1494 1494 1495 1495 1495 1496 1497 1497 1497
1440 1441 1443 1445 1448 1451 1454 1457 1459 1461 1464 1465 1466 1468 1469 1470 1471 1473 1474 1476 1478 1475 1473 1471 1475 1477 1480 1481 1480 1479 1482 1485 1485 1486 1485 1485 1486 1488 1490 1490 1491 1490 1490
1434 1435 1437 1439 1442 1446 1449 1452 1454 1455 1457 1458 1460 1460 1461 1462 1463 1464 1466 1468 1467 1467 1467 1467 1468 1468 1471 1472 1472 1472 1473 1475 1477 1477 1476 1478 1479 1481 1482 1482 1482 1482 1482
1430 1431 1433 1435 1439 1442 1445 1447 1449 1450 1451 1452 1453 1453 1454 1455 1455 1456 1457 1457 1458 1459 1458 1457 1458 1460 1462 1463 1465 1465 1467 1466 1467 1467 1470 1471 1471 1470 1470 1470 1472 1472 1472
1428 1429 1431 1432 1435 1437 1440 1442 1444 1446 1446 1446 1447 1448 1448 1449 1449 1449 1449 1449 1450 1451 1451 1449 1450 1450 1451 1453 1456 1457 1458 1456 1457 1459 1462 1464 1463 1462 1462 1462 1461 1462 1462
1428 1428 1429 1430 1432 1434 1436 1438 1440 1440 1440 1441 1441 1442 1441 1442 1442 1442 1443 1442 1442 1443 1443 1442 1441 1444 1443 1444 1445 1447 1445 1447 1449 1451 1454 1455 1453 1452 1451 1451 1451 1451 1452
1428 1428 1427 1428 1429 1431 1432 1433 1434 1434 1434 1435 1435 1436 1435 1435 1435 1435 1435 1435 1435 1435 1434 1434 1434 1435 1435 1434 1436 1437 1438 1441 1442 1443 1445 1445 1441 1441 1442 1442 1441 1443 1443
1427 1427 1427 1427 1427 1428 1428 1428 1428 1428 1427 1427 1428 1429 1429 1428 1428 1427 1427 1427 1428 1427 1426 1424 1425 1427 1425 1426 1428 1428 1431 1433 1434 1436 1436 1439 1435 1433 1435 1435 1435 1436 1435
1425 1425 1424 1424 1424 1424 1423 1423 1423 1423 1422 1421 1421 1422 1422 1422 1421 1420 1419 1419 1420 1419 1419 1416 1418 1420 1417 1418 1422 1421 1424 1426 1425 1428 1428 1430 1426 1428 1428 1429 1427 1429 1428
1425 1424 1423 1422 1421 1421 1421 1421 1420 1418 1417 1417 1416 1415 1415 1415 1415 1413 1412 1413 1411 1411 1413 1413 1413 1411 1412 1413 1414 1412 1416 1418 1418 1419 1419 1418 1420 1421 1419 1418 1420 1421 1420
1425 1424 1422 1421 1420 1419 1418 1416 1415 1413 1412 1411 1411 1411 1411 1410 1410 1409 1408 1408 1407 1407 1406 1408 1408 1408 1407 1407 1408 1409 1408 1409 1409 1409 1410 1410 1412 1411 1411 1412 1413 1413 1412
1424 1422 1420 1419 1418 1416 1415 1414 1412 1411 1409 1408 1408 1407 1407 1408 1407 1406 1406 1405 1403 1403 1402 1403 1402 1401 1401 1401 1402 1403 1403 1402 1402 1405 1405 1405 1404 1403 1402 1403 1404 1404 1405
1427 1424 1422 1420 1418 1416 1414 1413 1412 1410 1409 1407 1406 1405 1404 1404 1404 1404 1403 1402 1401 1400 1400 1400 1399 1399 1398 1398 1398 1398 1399 1400 1401 1401 1400 1401 1399 1398 1394 1394 1395 1395 1396